K5EBQ Weather Reports


time (UTC)temp
C
wind
direction
speed
KPH
gust
KPH
rain 1hr
cm
rain 24hr
cm
rain mn
cm
humidity
%
barometer
mb
20260506024529 26 177 8.0 38.6 0.00 0.00 0.00 85 1006.0
20260506023027 26 192 4.8 17.7 0.00 0.00 0.00 85 1005.7
20260506021525 26 166 8.0 22.5 0.00 0.00 0.00 84 1005.6
20260506020025 26 188 8.0 20.9 0.00 0.00 0.00 84 1005.4
20260506014524 26 190 1.6 14.5 0.00 0.00 0.00 83 1005.2
20260506013024 26 219 6.4 16.1 0.00 0.00 0.00 82 1005.0
20260506011527 26 171 3.2 16.1 0.00 0.00 0.00 82 1004.6
20260506010022 27 171 3.2 25.7 0.00 0.00 0.00 81 1004.5
20260506004526 27 223 4.8 54.7 0.00 0.00 0.00 80 1004.4
20260506003021 27 180 6.4 12.9 0.00 0.00 0.00 80 1004.4
20260506001521 27 219 6.4 33.8 0.00 0.00 0.00 79 1004.2
20260506000022 27 181 3.2 14.5 0.00 0.00 0.00 79 1004.4
20260505234520 27 203 9.7 57.9 0.00 0.00 0.00 78 1004.2
20260505233019 27 155 12.9 72.4 0.00 0.00 0.00 77 1004.2
20260505231527 27 238 22.5 77.2 0.00 0.00 0.00 77 1004.2
20260505230026 28 226 22.5 75.6 0.00 0.00 0.00 77 1004.3
20260505224518 28 226 33.8 96.6 0.00 0.00 0.00 76 1004.3
20260505223016 28 196 19.3 125.5 0.00 0.00 0.00 76 1004.2
20260505221514 28 213 6.4 64.4 0.00 0.00 0.00 77 1004.4
20260505220013 28 203 4.8 16.1 0.00 0.00 0.00 76 1004.5
20260505214511 28 202 8.0 24.1 0.00 0.00 0.00 75 1004.7
20260505213010 28 207 3.2 19.3 0.00 0.00 0.00 77 1004.8
20260505211509 28 148 8.0 24.1 0.00 0.00 0.00 76 1004.9
20260505210008 28 219 6.4 16.1 0.00 0.00 0.00 77 1005.1
20260505204506 28 229 8.0 17.7 0.00 0.00 0.00 76 1005.2
20260505203005 28 223 8.0 27.4 0.00 0.00 0.00 76 1005.4
20260505201504 28 190 6.4 12.9 0.00 0.00 0.00 77 1005.8
20260505200001 28 186 3.2 17.7 0.00 0.00 0.00 78 1005.9
20260505194624 28 222 4.8 17.7 0.00 0.00 0.00 77 1006.1
20260505193100 28 230 6.4 16.1 0.00 0.00 0.00 76 1006.2
20260505191559 28 231 4.8 33.8 0.00 0.00 0.00 78 1006.3
20260505190057 27 204 4.8 14.5 0.00 0.00 0.00 80 1006.3
20260505184556 27 180 4.8 17.7 0.00 0.00 0.00 79 1006.6
20260505183055 28 95 9.7 20.9 0.00 0.00 0.00 77 1006.6
20260505181557 27 223 6.4 17.7 0.00 0.00 0.00 80 1006.7
20260505180049 26 208 1.6 14.5 0.00 0.00 0.00 83 1006.8
20260505174555 26 212 6.4 12.9 0.00 0.00 0.00 82 1007.1
20260505173048 26 167 3.2 25.7 0.00 0.00 0.00 83 1007.2
20260505171552 26 208 4.8 19.3 0.00 0.00 0.00 82 1007.1
20260505170047 26 231 4.8 12.9 0.00 0.00 0.00 82 1007.2
20260505164556 26 198 3.2 16.1 0.00 0.00 0.00 83 1007.3
20260505163050 26 234 6.4 16.1 0.00 0.00 0.00 85 1007.3
20260505161541 25 198 11.3 59.5 0.00 0.00 0.00 84 1007.2
20260505153036 25 119 3.2 14.5 0.00 0.00 0.00 87 1006.9
20260505151534 25 210 3.2 11.3 0.00 0.00 0.00 87 1006.9
20260505124514 22 184 0.0 0.0 0.00 0.00 0.00 92 1006.5
20260505123006 22 144 0.0 0.0 0.00 0.00 0.00 92 1006.5
20260505121502 22 163 0.0 0.0 0.00 0.00 0.00 92 1006.4
20260505120002 22 171 0.0 0.0 0.00 0.00 0.00 92 1006.1
20260505114501 22 167 0.0 0.0 0.00 0.00 0.00 92 1006.1
20260505113000 22 199 0.0 0.0 0.00 0.00 0.00 92 1006.3
20260505111600 22 200 0.0 0.0 0.00 0.00 0.00 92 1006.1
20260505110116 22 190 0.0 0.0 0.00 0.00 0.00 92 1006.0
20260505101550 21 167 0.0 0.0 0.00 0.00 0.00 92 1006.1
20260505100049 21 204 0.0 0.0 0.00 0.00 0.00 92 1006.3
20260505094547 21 204 0.0 0.0 0.00 0.00 0.00 91 1006.3
20260505093046 21 207 0.0 0.0 0.00 0.00 0.00 91 1006.3
20260505091544 21 207 0.0 0.0 0.00 0.00 0.00 90 1006.5
20260505090044 21 207 0.0 0.0 0.00 0.00 0.00 90 1006.6
20260505084543 21 203 0.0 0.0 0.00 0.00 0.00 90 1006.6
20260505083042 21 203 0.0 0.0 0.00 0.00 0.00 90 1006.7
20260505081544 21 203 0.0 0.0 0.00 0.00 0.00 89 1006.9
20260505080044 21 196 0.0 0.0 0.00 0.00 0.00 88 1006.9
20260505074537 22 209 0.0 8.0 0.00 0.00 0.00 88 1007.1
20260505073044 22 221 0.0 0.0 0.00 0.00 0.00 88 1007.0
20260505071547 22 86 0.0 11.3 0.00 0.00 0.00 87 1007.2
20260505070033 22 234 3.2 16.1 0.00 0.00 0.00 87 1007.2
20260505064531 22 198 0.0 11.3 0.00 0.00 0.00 86 1007.4
20260505063028 22 231 0.0 12.9 0.00 0.00 0.00 86 1007.7
20260505061526 22 198 0.0 0.0 0.00 0.00 0.00 86 1007.9
20260505060025 22 167 0.0 0.0 0.00 0.00 0.00 85 1008.0
20260505054532 22 168 0.0 8.0 0.00 0.00 0.00 85 1008.0
20260505053029 22 144 0.0 0.0 0.00 0.00 0.00 84 1008.2
20260505051533 22 217 0.0 0.0 0.00 0.00 0.00 84 1008.4
20260505041518 22 172 0.0 0.0 0.00 0.00 0.00 81 1008.3
20260505040032 22 149 0.0 8.0 0.00 0.00 0.00 80 1008.6
20260505034516 22 134 1.6 12.9 0.00 0.00 0.00 80 1008.6
20260505033019 22 197 3.2 11.3 0.00 0.00 0.00 79 1008.8
20260505031515 23 175 3.2 80.5 0.00 0.00 0.00 78 1008.6
20260505030024 23 190 6.4 32.2 0.00 0.00 0.00 78 1008.6